Location: Newark
(21.1200°N, 73.4000°E)
Time: 01:09:27
(UTC+00:00)

Courier 1B Rocket - Pass Details

Date: 25 January 2020
Orbit: 920 x 1202 km, 28.2° (Epoch: 19 February)

Event Time Altitude Azimuth Distance (km) Brightness Sun altitude
Rises 03:30:28 0° 219° (SW) 4,079 8.2 21.2°
Reaches altitude 10° 03:33:43 10° 209° (SSW) 3,100 7.7 21.9°
Maximum altitude 03:40:18 31° 151° (SSE) 1,900 8.0 23.2°
Drops below altitude 10° 03:46:36 10° 92° (E) 2,967 8.6 24.4°
Sets 03:49:38 0° 82° (E) 3,880 8.8 25.0°
